Weather History for White Plains, NY

Change the Weather History Date:

Tuesday, June 3, 2014

  Actual Average Record
Temperature  
Mean Temperature 72 °F -  
Max Temperature 84 °F 70 °F 84 °F (2014)
Min Temperature 60 °F 52 °F 42 °F (1986)
Cooling Degree Days 7    
Growing Degree Days 22 (Base 50)    
Moisture  
Dew Point 62 °F    
Average Humidity 73    
Maximum Humidity 94    
Minimum Humidity 51    
Precipitation  
Precipitation 0.16 in - - ()
Sea Level Pressure  
Sea Level Pressure 29.90 in    
Wind  
Wind Speed 3 mph (ESE)    
Max Wind Speed 10 mph    
Max Gust Speed -    
Visibility 8 miles    
Events Rain    
Averages and records for this station are not official NWS values.
T = Trace of Precipitation, MM = Missing Value Source: NWS Daily Summary

Daily Weather History Graph

Daily Weather History Graph

Search for Another Location

Airport:

Trip Planner

Search our weather history database for the weather conditions in past years. The results will help you decide how hot, cold, wet, or windy it might be!

Date:

Astronomy

Jun. 03, 2014 Rise Set
Actual Time 5:23 AM EDT 8:22 PM EDT
Civil Twilight 4:50 AM EDT 8:55 PM EDT
Nautical Twilight 4:09 AM EDT 9:37 PM EDT
Astronomical Twilight 3:20 AM EDT 10:26 PM EDT
Moon 10:46 AM EDT (6/3) No Moon Set
Length of Visible Light 16h 04m
Length of Day
14h 58m
Waxing Crescent, 30% of the Moon is Illuminated
Jun 3
Waxing Crescent
Jun 5
First Quarter
Jun 13
Full
Jun 19
Last Quarter
Jun 27
New

Hourly Weather History & Observations

Time (EDT) Temp. Heat Index Dew Point Humidity Pressure Visibility Wind Dir Wind Speed Gust Speed Precip Events Conditions
1:56 AM 66.9 °F - 54.0 °F 63% 29.99 in 10.0 mi West 3.5 mph - N/A   Clear
2:56 AM 64.0 °F - 55.9 °F 75% 29.99 in 10.0 mi Calm Calm - N/A   Clear
3:56 AM 61.0 °F - 55.0 °F 81% 29.98 in 10.0 mi Calm Calm - N/A   Clear
4:56 AM 60.1 °F - 55.0 °F 83% 29.97 in 10.0 mi Calm Calm - N/A   Clear
5:56 AM 61.0 °F - 57.0 °F 87% 29.97 in 8.0 mi Calm Calm - N/A   Clear
6:56 AM 66.0 °F - 55.9 °F 70% 29.97 in 10.0 mi Calm Calm - N/A   Clear
7:56 AM 69.1 °F - 57.9 °F 68% 29.96 in 10.0 mi West 4.6 mph - N/A   Clear
8:56 AM 73.9 °F - 60.1 °F 62% 29.96 in 10.0 mi Calm Calm - N/A   Clear
9:56 AM 78.1 °F - 62.1 °F 58% 29.94 in 10.0 mi NNW 3.5 mph - N/A   Clear
10:56 AM 82.0 °F 83.1 °F 63.0 °F 52% 29.93 in 10.0 mi Calm Calm - N/A   Clear
11:56 AM 82.0 °F 83.4 °F 64.0 °F 54% 29.91 in 10.0 mi SSE 6.9 mph - N/A   Partly Cloudy
12:56 PM 82.9 °F 84.4 °F 64.0 °F 53% 29.90 in 10.0 mi SE 8.1 mph - N/A   Scattered Clouds
1:56 PM 84.0 °F 85.4 °F 64.0 °F 51% 29.87 in 10.0 mi SSE 10.4 mph - N/A   Scattered Clouds
2:56 PM 82.9 °F 84.4 °F 64.0 °F 53% 29.86 in 10.0 mi ESE 10.4 mph - N/A   Partly Cloudy
3:56 PM 82.0 °F 83.4 °F 64.0 °F 54% 29.83 in 10.0 mi SE 10.4 mph - N/A   Partly Cloudy
4:56 PM 82.0 °F 83.1 °F 63.0 °F 52% 29.82 in 10.0 mi SSE 10.4 mph - N/A   Scattered Clouds
5:56 PM 78.1 °F - 61.0 °F 56% 29.85 in 10.0 mi SSW 3.5 mph - 0.00 in Rain Light Rain
6:21 PM 71.6 °F - 66.2 °F 83% 29.87 in 2.0 mi Calm Calm - 0.03 in Rain Light Rain
6:41 PM 71.6 °F - 68.0 °F 88% 29.86 in 6.0 mi ENE 3.5 mph - 0.04 in Rain Light Rain
6:56 PM 71.1 °F - 68.0 °F 90% 29.85 in 4.0 mi East 3.5 mph - 0.06 in Rain Light Rain
7:56 PM 69.1 °F - 66.9 °F 93% 29.83 in 4.0 mi ESE 4.6 mph - 0.08 in Rain Light Rain
8:56 PM 68.0 °F - 66.0 °F 93% 29.83 in 5.0 mi East 4.6 mph - 0.02 in   Mostly Cloudy
9:56 PM 64.4 °F - 62.6 °F 94% 29.86 in 7.0 mi Variable 3.5 mph - N/A   Mostly Cloudy
10:38 PM 64.4 °F - 62.6 °F 94% 29.86 in 5.0 mi East 3.5 mph - N/A   Mostly Cloudy
10:56 PM 62.6 °F - 60.8 °F 94% 29.86 in 5.0 mi East 5.8 mph - N/A   Scattered Clouds
11:56 PM 62.1 °F - 60.1 °F 93% 29.83 in 5.0 mi East 3.5 mph - N/A   Mostly Cloudy